[[{"header":{"parameterUnit":"m.s-1","parameterCategory":1,"la1":30.2991,"la2":30.254,"lo1":-89.0895,"lo2":-89.0444,"dy":0.0017,"dx":0.0017,"nx":28,"ny":28,"refTime":"2024-06-14T21:00:00:Z","depth":0,"parameterNumber":2,"parameterNumberName":"U-component_of_WINDS"},"data":[0,0,0,0,0,0,0,0,0,0,0,0,0,0,0,0,0,0,0,0,0,0,0,0,0,0,0,0,0,0,0,0,0,0,0,0,0,0,0,0,0,0,0,0,0,0,0,0,0,0,0,0,0,0,0,0,0,0,-4.4464,-4.4464,0,-4.4487,-4.4488,-4.4488,-4.4487,-4.4486,-4.4486,-4.4486,-4.4507,-4.4508,-4.4509,0,0,0,0,0,0,0,0,0,0,0,0,0,-4.4417,-4.4417,-4.4464,-4.4464,-4.4465,-4.4487,-4.4488,-4.4488,-4.4487,-4.4486,-4.4486,-4.4486,-4.4507,-4.4508,-4.4509,0,0,0,0,0,0,0,0,0,0,0,0,0,-4.4438,-4.4418,-4.4464,-4.4467,-4.4467,-4.4487,-4.4488,-4.4488,-4.4487,-4.4486,-4.4486,-4.4485,-4.4506,-4.4508,-4.4509,-4.4527,0,0,-4.4513,-4.4514,0,0,0,0,0,0,0,0,-4.4437,-4.444,-4.4466,-4.4467,-4.4467,-4.4484,-4.4479,-4.4501,-4.4487,-4.4479,-4.4486,-4.4485,-4.45,-4.4501,-4.4507,-4.4528,-4.4529,-4.4513,-4.4514,-4.4515,-4.4515,0,0,0,0,0,0,0,-4.4435,-4.4439,-4.4473,-4.4467,-4.4467,-4.4466,-4.4469,-4.4483,-4.4492,-4.448,-4.448,-4.4483,-4.45,-4.4505,-4.4507,-4.4529,-4.4513,-4.4514,-4.4515,-4.4516,-4.4567,-4.4567,0,0,0,0,0,0,-4.4434,-4.4438,-4.4473,-4.4474,-4.4451,-4.4468,-4.447,-4.4479,-4.4492,-4.4493,-4.4483,-4.4483,-4.4503,-4.4506,-4.4508,-4.453,-4.4515,-4.4516,-4.4517,-4.4566,-4.4567,-4.4567,0,0,0,0,0,0,-4.4433,-4.4437,-4.4472,-4.4456,-4.446,-4.4469,-4.4478,-4.448,-4.4485,-4.4494,-4.4496,-4.4488,-4.4503,-4.4506,-4.4523,-4.453,-4.4516,-4.4518,-4.4565,-4.4566,-4.4567,-4.4573,0,0,0,0,0,0,-4.4431,-4.4436,-4.4444,-4.4456,-4.4461,-4.4486,-4.4479,-4.448,-4.4488,-4.4487,-4.4499,-4.45,-4.4503,-4.4521,-4.4524,-4.4532,-4.4519,-4.4565,-4.4566,-4.4567,-4.4572,-4.4574,-4.4576,0,0,0,0,0,-4.443,-4.4444,-4.4444,-4.4448,-4.4471,-4.4487,-4.449,-4.4493,-4.4489,-4.4496,-4.4502,-4.45,-4.4529,-4.4522,-4.4526,-4.4535,-4.4564,-4.4565,-4.4567,-4.4572,-4.4574,-4.4576,0,0,0,0,0,0,-4.4431,-4.4446,-4.4446,-4.4465,-4.4475,-4.4486,-4.4495,-4.4496,-4.4506,-4.4505,-4.4509,-4.4511,-4.4528,-4.4533,-4.4525,-4.4553,-4.4546,-4.4548,-4.4549,-4.4551,-4.4553,-4.455,-4.452,0,0,0,0,0,-4.4434,-4.4447,-4.4458,-4.4474,-4.4479,-4.4487,-4.4494,-4.4496,-4.4506,-4.451,-4.4517,-4.4526,-4.4537,-4.4544,-4.4555,-4.4574,-4.4576,-4.4582,-4.4583,-4.4585,-4.4586,-4.4596,-4.4598,-4.4571,-4.4571,-4.4571,0,0,-4.4439,-4.4449,-4.4456,-4.4475,-4.4482,-4.4495,-4.449,-4.4503,-4.4512,-4.4511,-4.4527,-4.4533,-4.4543,-4.4561,-4.4569,-4.4566,-4.4594,-4.4586,-4.4587,-4.4588,-4.4597,-4.46,-4.4602,-4.4572,-4.4572,-4.4572,0,0,-4.4455,-4.4464,-4.4478,-4.4487,-4.4499,-4.4504,-4.4507,-4.452,-4.4523,-4.454,-4.454,-4.455,-4.457,-4.4577,-4.4584,-4.4604,-4.4602,-4.4607,-4.4616,-4.4625,-4.4627,-4.4629,-4.4636,-4.4638,-4.4609,-4.4609,-4.4609,0,-4.446,-4.4479,-4.4485,-4.4499,-4.4506,-4.4508,-4.4522,-4.4529,-4.4544,-4.4549,-4.4546,-4.4571,-4.4578,-4.4597,-4.4602,-4.4607,-4.4611,-4.4605,-4.4627,-4.4629,-4.463,-4.4637,-4.4639,-4.4609,-4.4609,-4.4609,-4.4609,0,-4.4484,-4.4498,-4.4508,-4.4523,-4.4532,-4.4546,-4.4553,-4.4561,-4.4563,-4.4569,-4.4585,-4.4594,-4.4607,-4.4612,-4.4613,-4.4631,-4.4629,-4.4626,-4.4619,-4.4633,-4.4639,-4.4642,-4.461,-4.461,-4.461,-4.461,0,0,-4.45,-4.452,-4.4523,-4.4531,-4.4545,-4.4555,-4.4569,-4.4583,-4.4589,-4.46,-4.4611,-4.4628,-4.4626,-4.4633,-4.4636,-4.4644,-4.4659,-4.4641,-4.4641,-4.4643,-4.4679,-4.468,-4.4682,-4.4659,-4.4659,-4.466,-4.4677,0,-4.4517,-4.4542,-4.4548,-4.4569,-4.4582,-4.4584,-4.4596,-4.4606,-4.4611,-4.4622,-4.4628,-4.464,-4.4637,-4.4641,-4.465,-4.4656,-4.4666,-4.4655,-4.4668,-4.4669,-4.4664,-4.4686,-4.4687,-4.4703,-4.468,-4.468,-4.4681,0,-4.454,-4.4552,-4.4575,-4.4588,-4.4594,-4.4604,-4.4617,-4.4628,-4.4639,-4.4642,-4.4651,-4.4653,-4.4667,-4.4661,-4.4679,-4.4671,-4.4677,-4.4681,-4.4682,-4.4682,-4.4675,-4.4686,-4.4708,-4.471,-4.4684,-4.4684,-4.4684,0,-4.4548,-4.4571,-4.4587,-4.4593,-4.461,-4.4617,-4.4624,-4.4635,-4.4643,-4.4654,-4.4659,-4.4671,-4.4678,-4.4687,-4.4692,-4.4687,-4.471,-4.4704,-4.4713,-4.4713,-4.4716,-4.4716,-4.4739,-4.4722,-4.4722,-4.4722,-4.4722,0,-4.4566,-4.458,-4.4591,-4.4601,-4.4617,-4.4623,-4.4638,-4.4645,-4.4655,-4.4665,-4.4668,-4.4678,-4.4685,-4.4696,-4.47,-4.4714,-4.4717,-4.472,-4.4721,-4.4719,-4.4719,-4.4722,-4.4721,-4.4723,-4.4723,-4.4723,-4.4722,0,-4.4577,-4.4586,-4.4604,-4.4619,-4.4622,-4.4633,-4.4645,-4.4654,-4.4661,-4.4674,-4.4678,-4.4687,-4.47,-4.4707,-4.4722,-4.4725,-4.4741,-4.4742,-4.4738,-4.4738,-4.4746,-4.4744,-4.4771,-4.4775,-4.4756,-4.4756,-4.4757,0,-4.4588,-4.4598,-4.4614,-4.4622,-4.463,-4.4642,-4.4651,-4.4658,-4.4666,-4.4681,-4.4688,-4.4702,-4.4712,-4.4733,-4.4741,-4.4753,-4.4753,-4.4762,-4.4755,-4.4753,-4.4752,-4.4751,-4.4752,-4.4762,-4.4762,-4.4763,-4.4763,0,-4.4604,-4.4608,-4.4621,-4.4635,-4.4645,-4.4657,-4.4668,-4.4674,-4.4683,-4.4692,-4.4706,-4.4715,-4.4732,-4.4744,-4.4757,-4.4764,-4.4764,-4.4765,-4.4768,-4.4765,-4.4762,-4.4763,-4.474,-4.4764,-4.4764,-4.4764,-4.4764,-4.4764,-4.4615,-4.4625,-4.4637,-4.4651,-4.4661,-4.4671,-4.4681,-4.4689,-4.4701,-4.4716,-4.4719,-4.4734,-4.4745,-4.4762,-4.4769,-4.478,-4.4778,-4.4782,-4.4783,-4.4783,-4.4783,-4.4762,-4.4783,-4.4783,-4.4783,-4.4783,-4.4783,0,-4.4631,-4.464,-4.4653,-4.4669,-4.468,-4.4681,-4.4694,-4.4702,-4.4715,-4.4726,-4.4737,-4.4753,-4.4766,-4.4775,-4.4788,-4.4795,-4.4796,-4.4798,-4.4797,-4.4798,-4.4785,-4.4781,-4.4797,-4.4797,-4.4797,-4.4797,-4.4797,-4.4797,-4.4641,-4.4657,-4.4663,-4.4684,-4.4692,-4.4707,-4.4714,-4.4724,-4.4732,-4.475,-4.4761,-4.4768,-4.4778,-4.4792,-4.4803,-4.4806,-4.481,-4.4812,-4.4814,-4.4801,-4.4799,-4.4798,-4.4794,-4.4813,-4.4813,-4.4827,-4.4827,-4.4827]},{"header":{"parameterUnit":"m.s-1","parameterCategory":1,"la1":30.2991,"la2":30.254,"lo1":-89.0895,"lo2":-89.0444,"dy":0.0017,"dx":0.0017,"nx":28,"ny":28,"refTime":"2024-06-14T21:00:00:Z","depth":0,"parameterNumber":3,"parameterNumberName":"V-component_of_WINDS"},"data":[0,0,0,0,0,0,0,0,0,0,0,0,0,0,0,0,0,0,0,0,0,0,0,0,0,0,0,0,0,0,0,0,0,0,0,0,0,0,0,0,0,0,0,0,0,0,0,0,0,0,0,0,0,0,0,0,0,0,5.8352,5.8352,0,5.8342,5.8342,5.8342,5.8266,5.8265,5.8263,5.8261,5.8251,5.8252,5.8254,0,0,0,0,0,0,0,0,0,0,0,0,0,5.8305,5.8307,5.8352,5.8352,5.8351,5.8342,5.8342,5.8342,5.8267,5.8265,5.8262,5.826,5.8251,5.8252,5.8254,0,0,0,0,0,0,0,0,0,0,0,0,0,5.8314,5.8307,5.8352,5.8313,5.8309,5.8342,5.8342,5.8342,5.8267,5.8264,5.8262,5.8259,5.825,5.8252,5.8254,5.8324,0,0,5.8261,5.8262,0,0,0,0,0,0,0,0,5.8313,5.8315,5.8319,5.8316,5.8312,5.8303,5.8322,5.8336,5.8268,5.8283,5.8261,5.8258,5.827,5.8271,5.8275,5.8323,5.8323,5.8261,5.8263,5.8263,5.8264,0,0,0,0,0,0,0,5.8313,5.8315,5.8348,5.8319,5.8315,5.8296,5.8294,5.8324,5.8293,5.8282,5.8276,5.8276,5.8268,5.8273,5.8274,5.8323,5.8261,5.8263,5.8264,5.8265,5.8428,5.8431,0,0,0,0,0,0,5.8318,5.8315,5.8348,5.8348,5.8306,5.8299,5.8297,5.8308,5.8292,5.8287,5.8278,5.8273,5.8271,5.8272,5.8274,5.8355,5.8263,5.8266,5.8267,5.8425,5.8429,5.8432,0,0,0,0,0,0,5.8317,5.8321,5.8348,5.833,5.8332,5.8303,5.8316,5.831,5.8315,5.829,5.8284,5.829,5.8269,5.8271,5.8312,5.8353,5.8267,5.8269,5.8422,5.8426,5.8431,5.8517,0,0,0,0,0,0,5.8316,5.8321,5.8347,5.8331,5.8333,5.8387,5.8319,5.8311,5.8319,5.8311,5.8298,5.8294,5.8267,5.8309,5.8314,5.8355,5.827,5.8418,5.8424,5.8429,5.851,5.8524,5.8535,0,0,0,0,0,5.8315,5.8372,5.8349,5.8353,5.8365,5.839,5.8391,5.8359,5.8322,5.8348,5.8332,5.8294,5.8348,5.8314,5.8319,5.8361,5.8415,5.8422,5.8429,5.8504,5.8521,5.8535,0,0,0,0,0,0,5.8393,5.8369,5.8343,5.8397,5.8396,5.8377,5.8408,5.8377,5.8386,5.8378,5.8338,5.8336,5.8384,5.8376,5.8339,5.8428,5.8375,5.8383,5.8431,5.8446,5.8459,5.846,5.8272,0,0,0,0,0,5.8417,5.8439,5.8416,5.8466,5.8466,5.8438,5.8447,5.8423,5.842,5.8419,5.8406,5.8405,5.8422,5.8433,5.8447,5.8509,5.8505,5.854,5.8552,5.8563,5.8571,5.8604,5.8619,5.8454,5.8454,5.8454,0,0,5.8465,5.8455,5.8471,5.8481,5.8477,5.8502,5.8438,5.8466,5.8483,5.8423,5.8462,5.8453,5.8449,5.8501,5.8523,5.8496,5.8615,5.8572,5.858,5.8582,5.8612,5.8628,5.8642,5.8459,5.8458,5.8457,0,0,5.8567,5.8561,5.8602,5.86,5.8595,5.8576,5.8586,5.8572,5.8564,5.8602,5.8558,5.8578,5.8607,5.8607,5.861,5.8713,5.8679,5.8719,5.8785,5.8817,5.883,5.8842,5.8879,5.8893,5.8726,5.8727,5.8727,0,5.8628,5.8662,5.8627,5.8658,5.8664,5.8611,5.8653,5.8653,5.8653,5.8659,5.8628,5.8665,5.8658,5.871,5.8736,5.874,5.8751,5.872,5.8831,5.8842,5.8852,5.8888,5.8902,5.8732,5.8731,5.8731,5.873,0,5.8738,5.8763,5.8797,5.8799,5.8809,5.8845,5.8816,5.883,5.8805,5.8789,5.8829,5.882,5.8832,5.8842,5.8817,5.8891,5.8874,5.8838,5.8785,5.8874,5.8906,5.892,5.8739,5.8737,5.8735,5.8734,0,0,5.8888,5.8872,5.8885,5.8886,5.8878,5.8896,5.893,5.8942,5.8955,5.8958,5.8986,5.9012,5.898,5.8984,5.8959,5.8987,5.9071,5.8948,5.8947,5.8972,5.9152,5.918,5.9197,5.9048,5.905,5.9052,5.9153,0,5.8987,5.9045,5.9014,5.9076,5.9099,5.905,5.908,5.9078,5.9065,5.9082,5.9067,5.9087,5.9041,5.9044,5.907,5.9055,5.9107,5.9047,5.9074,5.9076,5.9078,5.9213,5.9243,5.9338,5.9166,5.9168,5.9169,0,5.9109,5.9117,5.9182,5.9171,5.9179,5.9207,5.9216,5.9233,5.923,5.9218,5.9224,5.9192,5.9226,5.9173,5.9218,5.9179,5.9188,5.9182,5.9185,5.9187,5.9128,5.922,5.9368,5.9383,5.9189,5.9187,5.9186,0,5.9214,5.9241,5.9283,5.9285,5.9273,5.9294,5.9289,5.9284,5.9294,5.9301,5.9307,5.9319,5.9325,5.9335,5.9308,5.9271,5.9358,5.9302,5.935,5.9351,5.937,5.937,5.9523,5.9375,5.9375,5.9375,5.9374,0,5.9327,5.9369,5.933,5.9357,5.9402,5.9367,5.9413,5.9403,5.9399,5.9423,5.9381,5.9404,5.9366,5.9386,5.9364,5.9406,5.9409,5.9401,5.9395,5.9405,5.9407,5.9411,5.9404,5.9378,5.9378,5.9377,5.9376,0,5.9452,5.9427,5.9471,5.9456,5.9453,5.9487,5.9474,5.9498,5.9482,5.9513,5.9518,5.9493,5.9514,5.9487,5.9505,5.9491,5.9549,5.9532,5.955,5.9545,5.9595,5.9591,5.9758,5.9778,5.9616,5.9618,5.9619,0,5.9526,5.9557,5.9546,5.9559,5.9558,5.9579,5.9589,5.9556,5.9567,5.9568,5.9592,5.9609,5.9622,5.9658,5.9641,5.9655,5.9639,5.9696,5.9641,5.9651,5.9641,5.964,5.9644,5.9708,5.971,5.9712,5.9713,0,5.9661,5.9648,5.9664,5.9676,5.9689,5.9697,5.9701,5.9714,5.968,5.9695,5.9716,5.9726,5.9745,5.9764,5.9773,5.9769,5.9736,5.973,5.9742,5.9754,5.9763,5.976,5.9582,5.9727,5.9726,5.9725,5.9724,5.9723,5.9764,5.979,5.9786,5.9806,5.9806,5.9811,5.9833,5.982,5.9837,5.9851,5.983,5.9857,5.9855,5.9864,5.9864,5.9885,5.986,5.9877,5.9882,5.9887,5.9895,5.9759,5.9886,5.9886,5.9885,5.9885,5.9885,0,5.9898,5.9894,5.9912,5.992,5.9935,5.9903,5.9906,5.9922,5.9946,5.9946,5.996,5.9985,6.0003,5.9988,6.0002,6.0022,6.0007,6.0027,6.0026,6.0026,5.9915,5.9904,6.0039,6.0039,6.0039,6.0039,6.0039,6.0039,5.997,6.0012,5.9999,6.0041,6.0036,6.0063,6.0068,6.0073,6.0074,6.0104,6.0118,6.0108,6.0103,6.0117,6.0132,6.0127,6.0135,6.0161,6.0151,6.0048,6.0033,6.0019,6.0008,6.0163,6.0163,6.026,6.0261,6.0261]}]]